Boulder City, NV

9:00 AM PST on November 13, 2019 (GMT -0800)
Boulder City

Weather History for KBVU - September, 2019

Change the Weather History Date:

Friday, September 13, 2019

  Actual Average (WUND) Record (WUND)
Temperature  
Mean Temperature 82 °F -  
Max Temperature 96 °F - - (-1)
Min Temperature 69 °F - - (-1)
Cooling Degree Days 18    
Growing Degree Days 32 (Base 50)    
Moisture  
Dew Point 27 °F    
Average Humidity 14    
Maximum Humidity 25    
Minimum Humidity 7    
Precipitation  
Precipitation 0.00 in - - ()
Sea Level Pressure  
Sea Level Pressure 30.03 in    
Wind  
Wind Speed 5 mph ()    
Max Wind Speed 13 mph    
Max Gust Speed 15 mph    
Visibility 10.0 miles    
Events      
Averages and records for this station are not official NWS values.
T = Trace of Precipitation, MM = Missing Value Source: Averaged Metar Reports

Daily Weather History Graph

Daily Weather History Graph

Search for Another Location

Airport or City:

Astronomy

Sep. 13, 2019 Rise Set
Actual Time 6:20 AM PDT 6:49 PM PDT
Civil Twilight 5:54 AM PDT 7:15 PM PDT
Nautical Twilight 5:24 AM PDT 7:45 PM PDT
Astronomical Twilight 4:53 AM PDT 8:16 PM PDT
Moon 7:03 PM PDT 5:44 AM PDT
Length of Visible Light 13h 20m
Length of Day
12h 29m
Full, 100% of the Moon is Illuminated
Sep 13
Full
Sep 13
Full
Sep 21
Last Quarter
Sep 28
New
Oct 5
First Quarter

Hourly Weather History & Observations

Time (PDT) Temp. Dew Point Humidity Pressure Visibility Wind Dir Wind Speed Gust Speed Precip Events Conditions
12:15 AM 78.8 °F 24.8 °F 14% 30.04 in 10.0 mi Calm Calm - N/A   Clear
12:35 AM 78.8 °F 26.6 °F 15% 30.04 in 10.0 mi North 9.2 mph - N/A   Clear
12:55 AM 75.2 °F 24.8 °F 15% 30.04 in 10.0 mi Calm Calm - N/A   Clear
1:15 AM 75.2 °F 24.8 °F 15% 30.05 in 10.0 mi West 6.9 mph - N/A   Clear
1:35 AM 75.2 °F 24.8 °F 15% 30.05 in 10.0 mi NW 5.8 mph - N/A   Clear
1:55 AM 73.4 °F 24.8 °F 16% 30.05 in 10.0 mi NW 8.1 mph - N/A   Clear
2:55 AM 71.6 °F 30.2 °F 22% 30.05 in 10.0 mi Calm Calm - N/A   Partly Cloudy
3:15 AM 71.6 °F 28.4 °F 20% 30.04 in 10.0 mi Calm Calm - N/A   Partly Cloudy
3:35 AM 69.8 °F 30.2 °F 23% 30.05 in 10.0 mi Calm Calm - N/A   Partly Cloudy
3:55 AM 71.6 °F 26.6 °F 19% 30.04 in 10.0 mi WSW 3.5 mph - N/A   Scattered Clouds
4:15 AM 69.8 °F 24.8 °F 18% 30.05 in 10.0 mi NW 8.1 mph - N/A   Scattered Clouds
4:35 AM 73.4 °F 24.8 °F 16% 30.05 in 10.0 mi NNW 5.8 mph - N/A   Scattered Clouds
4:55 AM 71.6 °F 24.8 °F 17% 30.05 in 10.0 mi Calm Calm - N/A   Partly Cloudy
5:15 AM 77.0 °F 23.0 °F 13% 30.05 in 10.0 mi NNW 6.9 mph 15.0 mph N/A   Scattered Clouds
5:35 AM 77.0 °F 24.8 °F 14% 30.05 in 10.0 mi Variable 4.6 mph - N/A   Scattered Clouds
5:55 AM 75.2 °F 24.8 °F 15% 30.06 in 10.0 mi Calm Calm - N/A   Clear
6:15 AM 75.2 °F 24.8 °F 15% 30.07 in 10.0 mi NW 5.8 mph - N/A   Clear
6:35 AM 75.2 °F 24.8 °F 15% 30.07 in 10.0 mi North 8.1 mph - N/A   Clear
6:55 AM 77.0 °F 24.8 °F 14% 30.08 in 10.0 mi Variable 4.6 mph 11.5 mph N/A   Clear
7:15 AM 77.0 °F 24.8 °F 14% 30.08 in 10.0 mi Calm Calm - N/A   Clear
7:35 AM 77.0 °F 24.8 °F 14% 30.08 in 10.0 mi NNW 9.2 mph - N/A   Clear
7:55 AM 78.8 °F 24.8 °F 14% 30.09 in 10.0 mi NNW 8.1 mph - N/A   Clear
8:15 AM 78.8 °F 28.4 °F 16% 30.09 in 10.0 mi Calm Calm - N/A   Clear
8:35 AM 80.6 °F 28.4 °F 15% 30.10 in 10.0 mi Calm Calm - N/A   Clear
8:55 AM 82.4 °F 24.8 °F 12% 30.10 in 10.0 mi North 6.9 mph - N/A   Clear
9:15 AM 84.2 °F 24.8 °F 11% 30.10 in 10.0 mi NNW 10.4 mph - N/A   Clear
9:35 AM 84.2 °F 24.8 °F 11% 30.10 in 10.0 mi NNW 6.9 mph - N/A   Clear
9:55 AM 86.0 °F 26.6 °F 12% 30.10 in 10.0 mi NNE 5.8 mph 11.5 mph N/A   Clear
10:15 AM 87.8 °F 26.6 °F 11% 30.10 in 10.0 mi NNW 8.1 mph 15.0 mph N/A   Clear
10:35 AM 87.8 °F 28.4 °F 12% 30.09 in 10.0 mi North 8.1 mph - N/A   Clear
10:55 AM 87.8 °F 26.6 °F 11% 30.09 in 10.0 mi NNE 8.1 mph - N/A   Clear
11:15 AM 89.6 °F 26.6 °F 10% 30.08 in 10.0 mi NE 8.1 mph - N/A   Clear
11:35 AM 89.6 °F 26.6 °F 10% 30.08 in 10.0 mi NE 9.2 mph - N/A   Clear
11:55 AM 91.4 °F 26.6 °F 10% 30.07 in 10.0 mi NE 11.5 mph - N/A   Clear
12:15 PM 91.4 °F 24.8 °F 9% 30.06 in 10.0 mi NE 11.5 mph - N/A   Clear
12:35 PM 91.4 °F 24.8 °F 9% 30.06 in 10.0 mi NE 12.7 mph - N/A   Clear
12:55 PM 93.2 °F 24.8 °F 9% 30.05 in 10.0 mi NNE 12.7 mph - N/A   Clear
1:15 PM 93.2 °F 24.8 °F 9% 30.04 in 10.0 mi NE 12.7 mph - N/A   Clear
1:35 PM 93.2 °F 24.8 °F 9% 30.03 in 10.0 mi NE 12.7 mph - N/A   Clear
1:55 PM 95.0 °F 24.8 °F 8% 30.02 in 10.0 mi NE 11.5 mph - N/A   Clear
2:15 PM 95.0 °F 24.8 °F 8% 30.01 in 10.0 mi NE 11.5 mph - N/A   Clear
2:55 PM 96.8 °F 24.8 °F 8% 29.99 in 10.0 mi NE 10.4 mph - N/A   Clear
3:15 PM 95.0 °F 24.8 °F 8% 29.98 in 10.0 mi ENE 5.8 mph - N/A   Clear
3:35 PM 96.8 °F 24.8 °F 8% 29.98 in 10.0 mi ENE 8.1 mph - N/A   Clear
3:55 PM 96.8 °F 24.8 °F 8% 29.97 in 10.0 mi ESE 6.9 mph - N/A   Clear
4:15 PM 96.8 °F 24.8 °F 8% 29.97 in 10.0 mi Variable 4.6 mph - N/A   Clear
4:35 PM 96.8 °F 24.8 °F 8% 29.96 in 10.0 mi East 4.6 mph - N/A   Clear
4:55 PM 96.8 °F 23.0 °F 7% 29.96 in 10.0 mi NE 6.9 mph - N/A   Clear
5:15 PM 95.0 °F 24.8 °F 8% 29.96 in 10.0 mi Calm Calm - N/A   Clear
5:35 PM 95.0 °F 24.8 °F 8% 29.95 in 10.0 mi NE 5.8 mph - N/A   Clear
6:15 PM 95.0 °F 26.6 °F 9% 29.95 in 10.0 mi NE 4.6 mph - N/A   Clear
6:35 PM 91.4 °F 30.2 °F 11% 29.94 in 10.0 mi NE 5.8 mph - N/A   Clear
6:55 PM 89.6 °F 32.0 °F 13% 29.94 in 10.0 mi NNE 6.9 mph - N/A   Clear
7:15 PM 87.8 °F 30.2 °F 13% 29.95 in 10.0 mi NNE 4.6 mph - N/A   Clear
7:35 PM 86.0 °F 30.2 °F 13% 29.95 in 10.0 mi NNE 4.6 mph - N/A   Clear
7:55 PM 82.4 °F 35.6 °F 19% 29.96 in 10.0 mi North 3.5 mph - N/A   Clear
8:15 PM 82.4 °F 33.8 °F 17% 29.96 in 10.0 mi NE 6.9 mph - N/A   Clear
8:35 PM 84.2 °F 32.0 °F 15% 29.97 in 10.0 mi Calm Calm - N/A   Clear
8:55 PM 86.0 °F 28.4 °F 12% 29.97 in 10.0 mi ENE 4.6 mph - N/A   Clear
9:15 PM 80.6 °F 35.6 °F 20% 29.97 in 10.0 mi ENE 5.8 mph - N/A   Clear
9:35 PM 80.6 °F 33.8 °F 18% 29.98 in 10.0 mi ENE 4.6 mph - N/A   Clear
9:55 PM 78.8 °F 37.4 °F 23% 29.98 in 10.0 mi NNE 4.6 mph - N/A   Clear
10:15 PM 78.8 °F 32.0 °F 18% 29.98 in 10.0 mi Calm Calm - N/A   Partly Cloudy
10:35 PM 78.8 °F 30.2 °F 17% 29.99 in 10.0 mi Calm Calm - N/A   Clear
10:55 PM 77.0 °F 30.2 °F 18% 29.99 in 10.0 mi NW 4.6 mph - N/A   Clear
11:15 PM 77.0 °F 32.0 °F 19% 29.99 in 10.0 mi Calm Calm - N/A   Clear
11:35 PM 75.2 °F 33.8 °F 22% 29.99 in 10.0 mi Calm Calm - N/A   Partly Cloudy
11:55 PM 73.4 °F 35.6 °F 25% 29.99 in 10.0 mi Calm Calm - N/A   Partly Cloudy